User: anonymous   Login
Location: Unspecified
(0.0000°N, 0.0000°E)
Time: 23:17:07
(UTC+00:00)
Language:

STARLINK-33752 - Orbit

View from above orbital plane
View from above orbital plane
View from above satellite
View from above satellite

Ground track
Ground track

The orbit is defined by the following mean orbital elements,

1 63580U          26145.54860421 +.00000000 +00000-0 +61053-3 0 00001
2 63580  42.9999 247.7540 0001128 270.8798  89.1924 15.27593375    08
Epoch (UTC): 25 May 2026 13:09:59
Eccentricity: 0.0001128
inclination: 42.9999°
perigee height: 482 km
apogee height: 484 km
right ascension of ascending node: 247.7540°
argument of perigee: 270.8798°
revolutions per day: 15.27593375
mean anomaly at epoch: 89.1924°

The dashed part of the orbit path shows where the satellite is in the earth's shadow,  

DLR